Regional Weather Roundup
Issued by NWS Bismarck, ND

Home | Current Version | Previous Version | Text Only | Print | Product List | Glossary On
Versions: 1 2 3 4 5 6 7 8 9 10 11 12 13 14 15 16 17 18 19 20 21 22 23 24 25 26 27 28 29 30 31 32 33 34 35 36 37 38 39 40 41 42 43 44 45 46 47 48 49 50
000
ASUS43 KBIS 031410
RWRBIS

NWR BROADCAST TEXT
NATIONAL WEATHER SERVICE BISMARCK ND
900 AM CDT TUE MAY 03 2016

NOTE: "FAIR" INDICATES FEW OR NO CLOUDS BELOW 12,000 FEET WITH NO
SIGNIFICANT WEATHER AND/OR OBSTRUCTIONS TO VISIBILITY.


CITY           SKY/WX    TMP DP  RH WIND       PRES   REMARKS
WILLISTON      SUNNY     52  37  56 CALM      30.06R
MINOT          SUNNY     63  32  31 NW17      29.99R
MINOT AFB      SUNNY     58  35  42 N15       29.98
BISMARCK       SUNNY     52  39  61 W13       30.01S
DICKINSON      SUNNY     53  37  54 NW10      30.04R
GARRISON         N/A     58  38  47 NW13      29.99S
HETTINGER ARPT SUNNY     55  40  56 W8        30.07S
JAMESTOWN      CLOUDY    58  44  60 W15       29.92F
CARRINGTON     FAIR      59  41  51 NW17      29.96R
HAZEN          FAIR      48  37  66 W8        30.04S
OAKES            N/A    N/A N/A N/A MISG        N/A
STANLEY        FAIR      61  32  33 NW13      30.05R
$$

CITY           SKY/WX    TMP DP  RH WIND       PRES   REMARKS
GRAND FORKS    MOSUNNY   61  39  44 NW23G30   29.85R
GRAND FORKS AF SUNNY     61  38  41 N23       29.86
DEVILS LAKE    MOSUNNY   56  39  53 N16       29.93R
FARGO          MOSUNNY   58  43  57 SW14      29.89F
CAVALIER       FAIR      55  36  47 N21G26    29.89R
GRAFTON        FAIR      57  37  47 N23G31    29.87R
GWINNER        FAIR      54  45  71 W10       29.95F
LANGDON        FAIR      55  34  44 N17G23    29.92R
$$

CITY           SKY/WX    TMP DP  RH WIND       PRES   REMARKS
ABERDEEN       SUNNY     51  44  77 W6        29.99S
MOBRIDGE       SUNNY     51  45  79 NW8       30.00S
BUFFALO          N/A     49  37  63 W5        30.02R
RAPID CITY     SUNNY     52  38  58 W6        30.10R
GLASGOW        SUNNY     51  41  68 W3        30.08R
SIDNEY         SUNNY     48  39  71 S5        30.08R
WOLF POINT     SUNNY     50  41  71 SW5       30.09R
GLENDIVE       SUNNY     54  39  58 CALM      30.11R
MILES CITY     SUNNY     53  42  66 SW8       30.11R
BAKER          SUNNY     53  39  59 NW6       30.10R
$$

CITY           SKY/WX    TMP DP  RH WIND       PRES   REMARKS
BILLINGS       MOSUNNY   49  36  61 SW12      30.17R
GREAT FALLS    SUNNY     50  39  66 SW9       30.12S
REGINA         MOSUNNY   59  36  41 E6        30.06R
ESTEVAN        MOSUNNY   61  37  41 N7        30.04R
$$





USA.gov is the U.S. government's official web portal to all federal, state and local government web resources and services.